BUGSAT 1

Satellite information

Favourite Embed

Satellite Type and Status

PAYLOADIN ORBIT

Key statistics

Satellite BUGSAT 1 at a glance.

Uptime

4147

Days in orbit

Revolutions

≈ 15.1

Per day

Orbit

SSO

Sun Synchronous Orbit

Inclination

98.1

Latest

Satellite identification and parameters

Extended collection of information and parameters for BUGSAT 1.

Object identification

Identified? True

Debris? False

Object name: BUGSAT 1

International designator: 2014-033E

Object number (NORAD): 40014

Object ID (CCSDS): 40014

Country: ARGENTINA (ARGN)

Current information (Y/N): Y

RCS size: MEDIUM

Orbital parameters

Period: 95.21 minutes

Inclination: 98.0604 deg

SMA: 6906.885 km

Apoapsis: 548.685 km

Periapsis: 508.816 km

RAAN: 13.1906 deg

Eccentricy: 0.00288618

Argument of periapsis: 258.7335 deg

Mean anomaly: 101.065 deg

Mean motion: 15.12444408 rev/day

Mean motion (dot): 0.00007589 rev/day2

B* drag term: 0.00043634047 1/REarth

Two-line elements (TLE)

Creation date: Oct. 26, 2025, 2:54 a.m.

Reference frame: TEME

Reference center: EARTH

Epoch: Oct. 25, 2025, 11:13 p.m. UTC

TLE line 0: 0 BUGSAT 1

TLE line 1: 1 40014U 14033E 25298.96756806 .00007589 00000-0 43634-3 0 9995

TLE line 2: 2 40014 98.0604 13.1906 0028862 258.7335 101.0650 15.12444408620393

Live tracking on map

Real-time ground track for satellite BUGSAT 1.

In-orbit conjunctions

There are no conjunctions computed for BUGSAT 1, at the moment. Check back to stay up to date, as we update our databases every day.

Go to all conjunctions

Associated space launch

BUGSAT 1 was lifted into orbit during the mission ‘Dnepr 1 | Multipayload, 37 satellites.’, on board a Dnepr space rocket.

The launch took place on June 19, 2014, 7:11 p.m. from 370/13.

For more information about the launch, click the button.

Launch to space Dnepr 1 | Multipayload, 37 satellites.
Dnepr 1 | Multipayload, 37 satellites.

Agency: N/A

Status: Launch Successful

Launch date: June 19, 2014, 7:11 p.m. UTC

Rocket: Dnepr

Launch pad: 370/13

Location: Dombarovskiy, Russian Federation

...

Latest news about this satellite

There are no fresh news available about this satellite. Check back as we update our databases every day.


Newsletter sign-up

Weekly statistics, charts and insights to help you stay on top of the space industry.